Location: Baarleveld
(51.0452°N, 3.6062°E)
Time: 13:30:53
(UTC+00:00)

SL-16 R/B - Visible Passes

Search period start: 14 February 2026 00:00
Search period end: 24 February 2026 00:00
Orbit: 841 x 846 km, 71.0° (Epoch: 13 February)

Date Brightness Start Highest point End Pass type
(mag) Time Alt. Az. Time Alt. Az. Time Alt. Az.
14 Feb 2.1 18:41:01 10° NNW 18:46:41 67° ENE 18:50:49 19° SE visible
14 Feb 4.1 20:25:49 10° NW 20:30:18 25° WSW 20:32:45 19° SW visible
15 Feb 2.2 18:26:33 10° NNW 18:32:11 65° NE 18:37:49 10° SE visible
15 Feb 4.1 20:11:17 10° NW 20:15:51 26° WSW 20:19:52 12° SSW visible
16 Feb 2.2 18:12:04 10° NNW 18:17:43 63° ENE 18:23:19 10° SE visible
16 Feb 4.1 19:56:45 10° NW 20:01:24 27° WSW 20:06:02 10° SSW visible
17 Feb 2.3 17:57:35 10° NNW 18:03:13 61° NE 18:08:49 10° SE visible
17 Feb 4.1 19:42:14 10° NW 19:46:56 28° WSW 19:51:38 10° SSW visible
18 Feb 2.3 17:43:07 10° NNW 17:48:44 59° NE 17:54:18 10° SE visible
18 Feb 4.1 19:27:43 10° NW 19:32:29 29° WSW 19:37:15 10° SSW visible
19 Feb 4.1 19:13:12 10° NW 19:18:02 30° WSW 19:22:51 10° SSW visible
20 Feb 4.1 18:58:41 10° NW 19:03:34 31° WSW 19:08:27 10° SSW visible
21 Feb 4.1 18:44:09 10° NW 18:49:07 32° WSW 18:54:02 10° SSW visible
22 Feb 4.1 18:29:38 10° NW 18:34:39 33° WSW 18:39:38 10° SSW visible
23 Feb 4.1 18:15:07 10° NW 18:20:11 34° WSW 18:25:13 10° S visible
